Location: Newark
(53.3333°N, 83.7500°E)
Time: 02:10:44
(UTC+00:00)

Vanguard 3 - All Passes

Search period start: 15 November 2019 00:00
Search period end: 25 November 2019 00:00
Orbit: 508 x 3263 km, 33.3° (Epoch: 14 November)

Date Brightness Start Highest point End Pass type
(mag) Time Alt. Az. Time Alt. Az. Time Alt. Az.
15 Nov - 06:51:43 10° SSE 06:59:08 13° SE 07:06:06 10° ESE daylight
15 Nov - 08:57:24 10° SSW 09:11:44 27° SSE 09:23:07 10° ESE daylight
15 Nov - 11:10:07 10° SW 11:24:41 32° S 11:34:51 10° SE visible
15 Nov - 13:25:48 10° WSW 13:36:31 24° SSW 13:44:00 10° SSE visible
16 Nov - 07:43:37 10° S 07:56:34 22° SSE 08:07:51 10° ESE daylight
16 Nov - 09:54:08 10° SW 10:09:38 33° S 10:21:13 10° ESE daylight
16 Nov - 12:08:39 10° WSW 12:22:19 31° SSW 12:31:42 10° SE visible
16 Nov - 14:26:02 10° WSW 14:33:17 16° SW 14:38:52 10° S visible
17 Nov - 06:31:52 10° S 06:41:36 16° SE 06:50:49 10° ESE daylight
17 Nov - 08:39:01 10° SSW 08:54:20 30° SSE 09:06:53 10° ESE daylight
17 Nov - 10:52:00 10° WSW 11:07:32 34° S 11:18:38 10° SE visible
17 Nov - 13:07:56 10° WSW 13:19:32 25° SSW 13:27:46 10° SSE visible
18 Nov - 07:25:04 10° SSW 07:39:02 25° SSE 07:51:36 10° ESE daylight
18 Nov - 09:36:00 10° SW 09:52:18 35° S 10:04:54 10° ESE daylight
18 Nov - 11:50:40 10° WSW 12:05:11 32° SSW 12:15:26 10° SE visible
18 Nov - 14:08:24 10° WSW 14:16:16 17° SW 14:22:24 10° S visible
19 Nov - 06:12:50 10° S 06:23:59 19° SE 06:34:49 10° ESE daylight
19 Nov - 08:20:53 10° SW 08:36:50 32° SSE 08:50:25 10° ESE daylight
19 Nov - 10:34:00 10° WSW 10:50:14 36° S 11:02:17 10° SE visible
19 Nov - 12:50:05 10° WSW 13:02:26 25° SSW 13:11:23 10° SSE visible
20 Nov - 05:04:48 10° SE 05:09:22 11° SE 05:14:00 10° ESE daylight
20 Nov - 07:06:51 10° SSW 07:21:25 27° SSE 07:35:04 10° ESE daylight
20 Nov - 09:18:03 10° SW 09:34:50 37° S 09:48:25 10° ESE daylight
20 Nov - 11:32:45 10° WSW 11:47:56 32° SSW 11:59:00 10° SE visible
20 Nov - 13:50:49 10° WSW 13:59:07 17° SW 14:05:44 10° S visible
21 Nov - 05:54:21 10° S 06:06:18 21° SE 06:18:23 10° ESE daylight
21 Nov - 08:02:58 10° SW 08:19:14 34° SSE 08:33:47 10° ESE daylight
21 Nov - 10:16:09 10° WSW 10:32:50 37° S 10:45:46 10° SE daylight
21 Nov - 12:32:17 10° WSW 12:45:11 25° SSW 12:54:49 10° SSE visible
22 Nov - 04:44:44 10° SSE 04:51:42 13° SE 04:58:55 10° ESE daylight
22 Nov - 06:48:57 10° SSW 07:03:43 30° SSE 07:18:18 10° ESE daylight
22 Nov - 09:00:17 10° SW 09:17:17 38° S 09:31:46 10° ESE daylight
22 Nov - 11:14:57 10° WSW 11:30:33 32° SSW 11:42:26 10° SE visible
22 Nov - 13:33:19 10° WSW 13:41:51 16° SW 13:48:50 10° SSW visible
23 Nov - 05:36:17 10° S 05:48:35 23° SE 06:01:37 10° ESE daylight
23 Nov - 07:45:17 10° SW 08:01:35 36° SSE 08:16:59 10° ESE daylight
23 Nov - 09:58:25 10° WSW 10:15:19 37° S 10:29:06 10° SE daylight
23 Nov - 12:14:34 10° WSW 12:27:48 25° SW 12:38:04 10° SSE visible
24 Nov - 04:25:55 10° SSE 04:34:00 15° SE 04:42:45 10° ESE daylight
24 Nov - 06:31:18 10° SSW 06:46:01 31° SSE 07:01:20 10° ESE daylight
24 Nov - 08:42:41 10° WSW 08:59:40 39° S 09:14:56 10° ESE daylight
24 Nov - 10:57:16 10° WSW 11:13:03 32° SSW 11:25:40 10° SSE visible
24 Nov - 13:15:58 10° WSW 13:24:28 16° SW 13:31:38 10° SSW visible
